Weather History for KVJI - October, 2013

Change the Weather History Date:

Wednesday, October 9, 2013

  Actual Average (KTRI) Record (KTRI)
Temperature  
Mean Temperature 60 °F 58 °F  
Max Temperature 71 °F 71 °F 88 °F (1939)
Min Temperature 50 °F 46 °F 29 °F (1978)
Degree Days  
Heating Degree Days 4 7  
Month to date heating degree days 54  
Since 1 July heating degree days 107  
Cooling Degree Days 0 1  
Month to date cooling degree days 9  
Year to date cooling degree days 977  
Growing Degree Days 10 (Base 50)    
Moisture  
Dew Point 45 °F    
Average Humidity 64    
Maximum Humidity 87    
Minimum Humidity 35    
Precipitation  
Precipitation 0.00 in 0.06 in 0.83 in (1976)
Month to date precipitation 0.61  
Year to date precipitation 33.05  
Snow  
Snow 0.00 in 0.00 in - ()
Month to date snowfall 0.0  
Since 1 July snowfall 0.0  
Since 1 September snowfall 0.0  
Snow Depth -    
Sea Level Pressure  
Sea Level Pressure 30.22 in    
Wind  
Wind Speed 8 mph (East)    
Max Wind Speed 16 mph    
Max Gust Speed 18 mph    
Visibility 10 miles    
Events      
T = Trace of Precipitation, MM = Missing Value Source: NWS Daily Summary

Daily Weather History Graph

Daily Weather History Graph

Search for Another Location

Airport or City:

Trip Planner

Search our weather history database for the weather conditions in past years. The results will help you decide how hot, cold, wet, or windy it might be!

Date:

Astronomy

Oct. 09, 2013 Rise Set
Actual Time 7:30 AM EDT 6:59 PM EDT
Civil Twilight 7:04 AM EDT 7:25 PM EDT
Nautical Twilight 6:34 AM EDT 7:55 PM EDT
Astronomical Twilight 6:04 AM EDT 8:25 PM EDT
Moon 12:18 PM EDT (10/9) 10:39 PM EDT (10/9)
Length of Visible Light 12h 21m
Length of Day
11h 29m
Waxing Crescent, 25% of the Moon is Illuminated
Oct 9
Waxing Crescent
Oct 11
First Quarter
Oct 18
Full
Oct 26
Last Quarter
Nov 3
New

Hourly Weather History & Observations

Time (EDT) Temp. Dew Point Humidity Pressure Visibility Wind Dir Wind Speed Gust Speed Precip Events Conditions
12:15 AM 54.1 °F 49.6 °F 85% 30.23 in 10.0 mi East 9.2 mph - N/A   Clear
12:35 AM 54.0 °F 49.3 °F 84% 30.23 in 10.0 mi ENE 8.1 mph - N/A   Clear
12:55 AM 53.6 °F 49.1 °F 85% 30.23 in 10.0 mi East 9.2 mph - N/A   Clear
1:15 AM 52.7 °F 48.9 °F 87% 30.23 in 10.0 mi East 9.2 mph - N/A   Clear
1:35 AM 52.9 °F 48.6 °F 85% 30.23 in 10.0 mi East 10.4 mph - N/A   Clear
1:55 AM 52.7 °F 48.4 °F 85% 30.23 in 10.0 mi East 11.5 mph - N/A   Clear
2:15 AM 52.2 °F 48.2 °F 86% 30.22 in 10.0 mi East 8.1 mph - N/A   Clear
2:35 AM 52.0 °F 48.2 °F 87% 30.23 in 10.0 mi East 10.4 mph - N/A   Clear
2:55 AM 52.0 °F 47.7 °F 85% 30.23 in 10.0 mi East 9.2 mph - N/A   Clear
3:15 AM 51.8 °F 47.3 °F 85% 30.22 in 10.0 mi ENE 6.9 mph - N/A   Clear
3:35 AM 50.9 °F 47.3 °F 87% 30.22 in 10.0 mi East 8.1 mph - N/A   Clear
3:55 AM 50.9 °F 46.9 °F 86% 30.22 in 10.0 mi ENE 8.1 mph - N/A   Clear
4:15 AM 50.9 °F 46.8 °F 86% 30.22 in 10.0 mi ENE 9.2 mph - N/A   Clear
4:35 AM 50.9 °F 46.6 °F 85% 30.22 in 10.0 mi East 9.2 mph - N/A   Clear
4:55 AM 50.5 °F 46.0 °F 85% 30.22 in 10.0 mi East 9.2 mph - N/A   Clear
5:15 AM 50.4 °F 45.5 °F 83% 30.22 in 10.0 mi ENE 5.8 mph - N/A   Clear
5:35 AM 50.4 °F 45.5 °F 83% 30.23 in 10.0 mi East 10.4 mph - N/A   Clear
5:55 AM 50.2 °F 45.1 °F 83% 30.23 in 10.0 mi East 9.2 mph - N/A   Clear
6:15 AM 50.4 °F 45.0 °F 82% 30.23 in 10.0 mi East 9.2 mph - N/A   Clear
6:35 AM 50.4 °F 44.8 °F 81% 30.23 in 10.0 mi ENE 6.9 mph - N/A   Clear
6:55 AM 50.4 °F 44.8 °F 81% 30.23 in 10.0 mi ENE 8.1 mph - N/A   Clear
7:15 AM 50.4 °F 44.8 °F 81% 30.23 in 10.0 mi East 5.8 mph - N/A   Clear
7:35 AM 50.4 °F 44.8 °F 81% 30.23 in 10.0 mi ENE 6.9 mph - N/A   Clear
7:55 AM 50.2 °F 45.0 °F 82% 30.24 in 10.0 mi East 6.9 mph - N/A   Clear
8:15 AM 51.1 °F 45.1 °F 80% 30.24 in 10.0 mi ENE 5.8 mph - N/A   Clear
8:35 AM 52.7 °F 46.0 °F 78% 30.25 in 10.0 mi East 10.4 mph - N/A   Clear
8:55 AM 54.0 °F 46.4 °F 76% 30.25 in 10.0 mi East 13.8 mph 18.4 mph N/A   Clear
9:15 AM 55.4 °F 46.6 °F 72% 30.25 in 10.0 mi East 15.0 mph - N/A   Clear
9:35 AM 56.5 °F 47.1 °F 71% 30.26 in 10.0 mi East 16.1 mph - N/A   Clear
9:55 AM 57.4 °F 46.8 °F 68% 30.26 in 10.0 mi East 12.7 mph - N/A   Clear
10:15 AM 58.6 °F 46.4 °F 64% 30.27 in 10.0 mi East 11.5 mph - N/A   Clear
10:35 AM 59.5 °F 46.4 °F 62% 30.27 in 10.0 mi East 16.1 mph - N/A   Clear
10:55 AM 61.2 °F 47.3 °F 60% 30.27 in 10.0 mi East 15.0 mph - N/A   Clear
11:15 AM 61.9 °F 46.0 °F 56% 30.27 in 10.0 mi East 11.5 mph 17.3 mph N/A   Clear
11:35 AM 63.0 °F 45.5 °F 53% 30.27 in 10.0 mi ESE 15.0 mph - N/A   Clear
11:55 AM 63.7 °F 45.9 °F 52% 30.26 in 10.0 mi East 12.7 mph - N/A   Clear
12:15 PM 64.4 °F 45.7 °F 51% 30.26 in 10.0 mi East 10.4 mph - N/A   Clear
12:35 PM 65.7 °F 46.4 °F 50% 30.25 in 10.0 mi East 8.1 mph - N/A   Clear
12:55 PM 66.6 °F 44.6 °F 45% 30.25 in 10.0 mi ESE 11.5 mph - N/A   Clear
1:15 PM 66.7 °F 45.5 °F 46% 30.24 in 10.0 mi East 9.2 mph - N/A   Clear
1:35 PM 68.4 °F 44.6 °F 42% 30.23 in 10.0 mi ENE 6.9 mph - N/A   Clear
1:55 PM 69.1 °F 43.5 °F 40% 30.22 in 10.0 mi East 9.2 mph - N/A   Clear
2:15 PM 69.1 °F 42.1 °F 38% 30.21 in 10.0 mi ESE 4.6 mph - N/A   Clear
2:35 PM 69.3 °F 41.0 °F 36% 30.20 in 10.0 mi East 3.5 mph - N/A   Clear
2:55 PM 70.5 °F 42.6 °F 36% 30.19 in 10.0 mi SE 4.6 mph - N/A   Clear
3:15 PM 70.0 °F 42.1 °F 36% 30.19 in 10.0 mi ENE 3.5 mph - N/A   Clear
3:35 PM 70.7 °F 42.1 °F 35% 30.19 in 10.0 mi East 4.6 mph - N/A   Clear
3:55 PM 71.8 °F 42.8 °F 35% 30.19 in 10.0 mi Calm Calm - N/A   Clear
4:15 PM 71.6 °F 43.2 °F 36% 30.18 in 10.0 mi ENE 4.6 mph - N/A   Clear
4:55 PM 70.9 °F 43.9 °F 38% 30.18 in 10.0 mi ENE 3.5 mph - N/A   Clear
5:15 PM 70.7 °F 44.2 °F 39% 30.18 in 10.0 mi Calm Calm - N/A   Clear
5:35 PM 70.7 °F 45.1 °F 40% 30.18 in 10.0 mi ENE 3.5 mph - N/A   Clear
5:55 PM 70.0 °F 45.3 °F 41% 30.18 in 10.0 mi East 4.6 mph - N/A   Clear
6:15 PM 68.9 °F 47.1 °F 46% 30.17 in 10.0 mi ENE 3.5 mph - N/A   Clear
6:35 PM 68.0 °F 45.1 °F 44% 30.18 in 10.0 mi ENE 3.5 mph - N/A   Clear
6:42 PM 66.2 °F 44.6 °F 46% 30.18 in 10.0 mi NE 3.5 mph - N/A   Clear
6:55 PM 65.8 °F 44.8 °F 47% 30.18 in 10.0 mi ENE 3.5 mph - N/A   Clear
7:15 PM 61.0 °F 46.8 °F 59% 30.18 in 10.0 mi East 3.5 mph - N/A   Clear
7:55 PM 59.2 °F 46.0 °F 62% 30.18 in 10.0 mi East 6.9 mph - N/A   Clear
8:15 PM 60.1 °F 45.3 °F 58% 30.19 in 10.0 mi East 8.1 mph - N/A   Clear
8:35 PM 59.0 °F 44.4 °F 58% 30.19 in 10.0 mi East 8.1 mph - N/A   Clear
8:55 PM 58.8 °F 43.9 °F 58% 30.19 in 10.0 mi ENE 5.8 mph - N/A   Clear
9:15 PM 59.4 °F 44.1 °F 57% 30.19 in 10.0 mi ENE 5.8 mph - N/A   Clear
9:35 PM 58.6 °F 44.1 °F 58% 30.19 in 10.0 mi ENE 4.6 mph - N/A   Clear
9:55 PM 57.7 °F 43.9 °F 60% 30.19 in 10.0 mi ENE 4.6 mph - N/A   Clear
10:15 PM 55.2 °F 43.7 °F 65% 30.19 in 10.0 mi East 3.5 mph - N/A   Clear
10:35 PM 55.2 °F 43.2 °F 64% 30.20 in 10.0 mi East 6.9 mph - N/A   Clear
10:55 PM 52.7 °F 44.6 °F 74% 30.20 in 10.0 mi East 6.9 mph - N/A   Clear
11:15 PM 53.8 °F 43.3 °F 68% 30.19 in 10.0 mi East 6.9 mph - N/A   Clear
11:35 PM 53.6 °F 43.2 °F 68% 30.19 in 10.0 mi East 6.9 mph - N/A   Clear
11:55 PM 54.0 °F 42.6 °F 65% 30.19 in 10.0 mi East 6.9 mph - N/A   Clear